Regional Weather Roundup
Issued by NWS Sterling, VA

Home | Current Version | Previous Version | Text Only | Print | Product List | Glossary Off
Versions: 1 2 3 4 5 6 7 8 9 10 11 12 13 14 15 16 17 18 19 20 21 22 23 24 25 26 27

000
ASUS41 KLWX 271011
RWRLWX

REGIONAL WEATHER ROUNDUP
NATIONAL WEATHER SERVICE BALTIMORE MD/WASHINGTON DC
600 AM EDT SAT MAY 27 2017

Note: "FAIR" indicates few or no clouds below 12,000 feet
with no significant weather and/or obstructions to visibility.
 TC=TEMPERATURE CELSIUS

 * =Non NWS site. Station does not report precipitation (e.g. rain,
    snow, etc.), thunder, or fog.

DCZ001-MDZ009-015-VAZ040>042-051-053>054-271100-
WASHINGTON METRO

CITY           SKY/WX    TMP DP  RH WIND       PRES   REMARKS
WASHINGTON NAT MOCLDY    62  60  93 SE5       29.91F
DULLES         PTCLDY    56  54  93 SE6       29.88F
ANDREWS AFB    PTCLDY    56  54  92 S5        29.90F
FT BELVOIR     MOCLDY    56  54  95 CALM      29.90F
QUANTICO       CLEAR     60  59  96 NW5       29.91F
COLLEGE PARK*  CLEAR     56  55  94 CALM      29.89F
LEESBURG*      CLOUDY    57  55  94 CALM      29.91S
MANASSAS*      PTCLDY    56  55  97 CALM      29.90F
GAITHERSBURG*  LGT RAIN  56  54  93 SE3       29.91F

$$

MDZ006>007-011-014-271100-
BALTIMORE METRO

CITY           SKY/WX    TMP DP  RH WIND       PRES   REMARKS
BWI AIRPORT    PTCLDY    56  55  97 CALM      29.90F
MD SCIENCE CTR   N/A     63  54  72 MISG      29.90F
ANNAPOLIS      PTCLDY    62  57  83 CALM      29.90F
FORT MEADE*    PTCLDY    54  52  94 CALM      29.93F

$$

MDZ012-015-019>023-271100-
MARYLAND EASTERN SHORE

CITY           SKY/WX    TMP DP  RH WIND       PRES   REMARKS
OCEAN CITY     CLOUDY    61  54  77 W3        29.93R
SALISBURY      CLOUDY    58  57  97 CALM      29.92R
BAY BRIDGE AP* MOCLDY    61  57  88 CALM      29.90F
CAMBRIDGE*     CLOUDY    61  59  94 CALM      29.92S
EASTON*        MOCLDY    63  57  82 CALM      29.94F

$$

MDZ017>025-271100-
SOUTHERN MARYLAND

CITY           SKY/WX    TMP DP  RH WIND       PRES   REMARKS
PATUXENT RIVER PTCLDY    59  58  96 CALM      29.91F
ST INIGOES     PTCLDY    57  57 100 CALM      29.92S
LEONARDTOWN*   CLEAR     55  54  94 CALM      29.94S

$$

MDZ003>005-271100-
NORTH CENTRAL MARYLAND

CITY           SKY/WX    TMP DP  RH WIND       PRES   REMARKS
FREDERICK*     PTCLDY    55  55 100 CALM      29.92F
HAGERSTOWN APT CLOUDY    56  54  93 S3        29.91S
WESTMINSTER*   CLEAR     57  54  88 CALM      29.91F

$$

MDZ501>502-271100-
WESTERN MARYLAND

CITY           SKY/WX    TMP DP  RH WIND       PRES   REMARKS
OAKLAND*       CLOUDY    54  52  94 W7        29.95R
CUMBERLAND*    CLOUDY    55  55 100 CALM      29.95S

$$

VAZ025>031-271100-
SHENANDOAH VALLEY

CITY           SKY/WX    TMP DP  RH WIND       PRES   REMARKS
WINCHESTER*    CLOUDY    54  52  94 NW3       29.91R
FRONT ROYAL*   PTCLDY    54  54 100 CALM      29.90R
LURAY*         CLOUDY    54  54 100 S3        29.91S
NEW MARKET*    PTCLDY    55  53  91 CALM      29.91R
STAUNTON*      MOCLDY    53  52  95 CALM      29.95S
WAYNESBORO*    MOCLDY    56  55  94 SW6       29.94S

$$

WVZ021-048>050-054>055-271100-
EASTERN WEST VIRGINIA PANHANDLE

CITY           SKY/WX    TMP DP  RH WIND       PRES   REMARKS
MARTINSBURG    CLOUDY    56  54  93 CALM      29.90R
PETERSBURG*    CLOUDY    57  56  96 CALM      29.92R

$$

VAZ036>039-050-271100-
CENTRAL FOOTHILLS

CITY           SKY/WX    TMP DP  RH WIND       PRES   REMARKS
CHARLOTTESVILL PTCLDY    58  56  93 W3        29.92R
CULPEPER*      PTCLDY    55  55 100 CALM      29.91S FOG
ORANGE*        MOCLDY    55  54  94 CALM      29.90S
GORDONSVILLE*  CLOUDY    55  55  99 CALM      29.91R
WARRENTON*     PTCLDY    57  54  90 CALM      29.89F

$$

VAZ055>057-271100-
NORTH AND CENTRAL PIEDMONT

CITY           SKY/WX    TMP DP  RH WIND       PRES   REMARKS
FREDERICKSBRG* CLEAR     57  57 100 CALM      29.90F
STAFFORD*      CLEAR     54  54 100 CALM      29.95F FOG

$$

NCZ024-NYZ072-PAZ021-071-VAZ022-071-271100-
OTHER REGIONAL OBSERVATIONS

CITY           SKY/WX    TMP DP  RH WIND       PRES   REMARKS
NEW YORK CITY  CLOUDY    61  54  77 W5        29.89R
PHILADELPHIA   PTCLDY    61  51  70 W12       29.91R
PITTSBURGH     LGT RAIN  57  57 100 E9        29.86F
ROANOKE        MOCLDY    61  56  83 N3        29.97R
RICHMOND       PTCLDY    56  55  97 CALM      29.92S
RALEIGH        PTCLDY    61  58  90 SW3       29.95F

$$

ANZ530>537-271100-
MARINE OBSERVATIONS

STATION/POSITION TIME  TEMP    WIND        PRES
                       AIR SEA DIR/SP/G
                 (UTC) (F)     (DEG/KT/KT) (MB)
THOMAS PT LIGHT  1000   63 64  280/  5/  5   N/A
BALT KEY BRIDGE  0948   63     270/  4/  4 1012.3F
COVE POINT       0948   64     280/  2/  3 1013.7F
LEWISETTA        0948   63 68  200/  3/  3 1013.1F
SOLOMONS ISLAND  0948   63 67  350/  1/  2   N/A
PINEY POINT      0942          110/  2/  2   N/A

$$





USA.gov is the U.S. government's official web portal to all federal, state and local government web resources and services.